Tracking 30995 objects as of 7-Jul-2025
HD Live streaming from Space Station
objects crossing your sky now

DELTA 1 DEB

Track DELTA 1 DEB now!
10-day predictions


NORAD ID: 7052
Int'l Code: 1973-086AU
Perigee: 1,505.9 km
Apogee: 1,543.0 km
Inclination: 102.4 °
Period: 116.4 minutes
Semi major axis: 7895 km
RCS: 0.0861 m2 (small)
Launch date: November 6, 1973
Source: United States (US)
Launch site: AIR FORCE WESTERN TEST RANGE (AFWTR)

Note: This is SATELLITE DEBRIS
Your satellite tracking list
Your tracking list is empty




NASA's NSSDC Master Catalog

Two Line Element Set (TLE):
1 07052U 73086AU  25187.50480744  .00000005  00000-0  39390-3 0  9995
2 07052 102.3872 188.8959 0023494 170.0943 342.0873 12.37474920332175
Source of the keplerian elements: AFSPC